STARLINK-37739, 69233

Orbit data source: Space-Track

STARLINK-37739, 69233 is a payload satellite owned by SpaceX/Seattle (US) in SSO that was launched on Tue, 26 May 2026 UTC via an FALCON 9 launch vehicle from the Air Force Western Test Range (AFWTR). Payload-class satellites include a variety of spacecraft equipped with specific instruments for various scientific and technological missions. These include communications satellites like Starlink; space stations such as the ISS; scientific satellites like the Hubble; Earth observation satellites from companies like Planet Labs, Umbra, and HawkEye 360; GPS; miniature CubeSats for education and research; and military/defense satellites.

Loading next visibility...
Identifier
69233, 2026-115Y
Orbit
SSO
Country
Flag of USUS
Related business
Manufacturer
SpaceX/Seattle
Mission
Operational spacecraft
Bus & Motor
STARLINK V2MO, Unknown motor
Mass
575 kg wet, ~530 kg dry
Launch date (UTC)
2026-05-26 (4 weeks ago)
Launch vehicle
FALCON 9
Launch site
Air Force Western Test Range (AFWTR)
Object type
Payload
Rocket body
Debris
Shape & HBR
Unknown
Radar Cross Section
Large (>1 m²)

Expand to show TLE details & history
Last TLE update: 19 hours ago

TLE from 19 hours ago
0 STARLINK-37739
1 69233U 26115Y   26171.03746768  .00050685  00000-0  92622-3 0  9994
2 69233  97.2853 188.3385 0002439  89.0543 271.0988 15.49230183  5110
Epoch: 2026-06-20T00:53Z
TLE epoch observation values (Epoch: 2026-06-20T00:53:57.207Z)
Latitude
Longitude
-93.4077°
Altitude
422.079 km
Speed
7.658 km/s
True Right ascension
12h 33m 21s
True Declination
0° 00' 00"
Sunlit
Object was in daylight at epoch
Visualization orbit readout
Latitude
Unknown
Longitude
Unknown
Altitude
Unknown
Speed
Unknown
Apparent Right ascension
Unknown
Apparent Declination
Unknown
Sunlit
N/A
Visualization observer readout
Local Sidereal Time
07:12:19
Azimuth
Unknown
Elevation
Unknown
Doppler factor
Unknown
Orbital elements
Apogee altitude
417.556 km
Perigee altitude
414.242 km
Semi-major axis
6,794.036 km
Eccentricity
0.00024
Inclination
97.2853°
RAAN
188.3385°
Arg. of periapsis
89.0543°
True anomaly
271.07086°
Mean anomaly
271.0988°
Eccentric anomaly
271.08483°
Mean motion
3.87571 °/min
Orbital period
92.89 mins
BSTAR
0.00092622
Loading maneuver chart data...
Computing Atmospheric mass density...
Loading historical data...
Loading historical data...
Loading historical data...
Loading historical data...
Loading historical data...
Loading historical data...
Loading historical data...

Documentation

Showing up to 5 results
|